TimeEDT,TemperatureF,Dew PointF,Humidity,Sea Level PressureIn,VisibilityMPH,Wind Direction,Wind SpeedMPH,Gust SpeedMPH,PrecipitationIn,Events,Conditions,WindDirDegrees,DateUTC
12:08 AM,48.2,46.4,93,29.88,1.5,Calm,Calm,-,N/A,,Overcast,0,2012-10-07 04:08:00
12:13 AM,48.2,44.6,87,29.88,0.8,Calm,Calm,-,N/A,,Mist,0,2012-10-07 04:13:00
12:49 AM,46.4,44.6,93,29.88,1.0,Calm,Calm,-,N/A,,Overcast,0,2012-10-07 04:49:00
12:53 AM,46.9,45.0,93,29.89,2.0,Calm,Calm,-,N/A,,Overcast,0,2012-10-07 04:53:00
1:00 AM,46.4,44.6,93,29.89,9.0,Calm,Calm,-,N/A,,Overcast,0,2012-10-07 05:00:00
1:53 AM,46.9,46.0,97,29.92,10.0,Calm,Calm,-,N/A,,Mostly Cloudy,0,2012-10-07 05:53:00
2:53 AM,46.0,44.1,93,29.94,7.0,Calm,Calm,-,N/A,,Overcast,0,2012-10-07 06:53:00
3:53 AM,44.1,42.1,93,29.96,9.0,Calm,Calm,-,N/A,,Partly Cloudy,0,2012-10-07 07:53:00
4:53 AM,42.1,39.9,92,29.97,5.0,Calm,Calm,-,N/A,,Clear,0,2012-10-07 08:53:00
5:44 AM,41.0,39.2,93,29.99,6.0,Calm,Calm,-,N/A,,Partly Cloudy,0,2012-10-07 09:44:00
5:53 AM,41.0,37.9,89,29.98,4.0,Calm,Calm,-,N/A,,Partly Cloudy,0,2012-10-07 09:53:00
6:53 AM,39.9,37.0,89,30.01,6.0,Calm,Calm,-,N/A,,Clear,0,2012-10-07 10:53:00
7:53 AM,43.0,41.0,93,30.04,10.0,Calm,Calm,-,N/A,,Clear,0,2012-10-07 11:53:00
8:53 AM,50.0,45.0,83,30.06,10.0,Calm,Calm,-,N/A,,Clear,0,2012-10-07 12:53:00
9:53 AM,53.1,43.0,69,30.06,10.0,Calm,Calm,-,N/A,,Clear,0,2012-10-07 13:53:00
10:53 AM,55.9,39.9,55,30.05,10.0,Calm,Calm,-,N/A,,Clear,0,2012-10-07 14:53:00
11:53 AM,55.9,37.0,49,30.05,10.0,Calm,Calm,-,N/A,,Clear,0,2012-10-07 15:53:00
12:53 PM,55.9,37.9,51,30.04,10.0,Calm,Calm,-,N/A,,Mostly Cloudy,0,2012-10-07 16:53:00
1:53 PM,55.9,42.1,60,30.04,10.0,South,5.8,-,N/A,,Mostly Cloudy,170,2012-10-07 17:53:00
2:53 PM,55.0,39.0,55,30.05,10.0,SSW,5.8,-,N/A,,Mostly Cloudy,210,2012-10-07 18:53:00
3:53 PM,54.0,41.0,62,30.04,10.0,Calm,Calm,-,N/A,,Clear,0,2012-10-07 19:53:00
4:53 PM,54.0,42.1,64,30.03,10.0,Calm,Calm,-,N/A,,Clear,0,2012-10-07 20:53:00
5:53 PM,51.1,46.0,83,30.03,10.0,Calm,Calm,-,N/A,,Clear,0,2012-10-07 21:53:00
6:53 PM,48.9,45.0,86,30.03,10.0,Calm,Calm,-,N/A,,Clear,0,2012-10-07 22:53:00
7:53 PM,48.0,45.0,89,30.03,10.0,Calm,Calm,-,N/A,,Clear,0,2012-10-07 23:53:00
8:53 PM,48.0,46.0,93,30.02,10.0,Calm,Calm,-,N/A,,Mostly Cloudy,0,2012-10-08 00:53:00
9:53 PM,48.9,46.0,90,30.02,10.0,Calm,Calm,-,N/A,,Overcast,0,2012-10-08 01:53:00
10:53 PM,48.9,46.0,90,30.03,10.0,Calm,Calm,-,N/A,,Overcast,0,2012-10-08 02:53:00
11:53 PM,48.9,46.9,93,30.05,6.0,Calm,Calm,-,0.03,Rain,Light Rain,0,2012-10-08 03:53:00